• In Czech Republic
  • List of Countries
  • For 7 days
  • Water Temperature
  • Satellite Maps
  • Weather Map
  • Weather Widgets
  • user-avatar
    Login

    Hourly Weather Uige

    Today, 28 June, Wednesday

    Time Temperature Precipitation Wind Pressure Humidity
    00:00 +19°C° 0 mm 1 mps 692 mmHg 86%
    01:00 +18°C° 0 mm 1 mps 692 mmHg 92%
    02:00 +18°C° 0 mm 1 mps 692 mmHg 93%
    03:00 +16°C° 0 mm 1 mps 692 mmHg 94%
    04:00 +16°C° 0 mm 1 mps 691 mmHg 96%
    05:00 +18°C° 0 mm 1 mps 692 mmHg 93%
    06:00 +18°C° 0 mm 1 mps 692 mmHg 90%
    07:00 +19°C° 0 mm 1 mps 692 mmHg 87%
    08:00 +22°C° 0 mm 1 mps 693 mmHg 72%
    09:00 +26°C° 0 mm 2 mps 693 mmHg 57%
    10:00 +29°C° 0 mm 2 mps 694 mmHg 42%
    11:00 +31°C° 0 mm 2 mps 694 mmHg 36%
    12:00 +34°C° 0 mm 2 mps 693 mmHg 30%
    13:00 +36°C° 0 mm 2 mps 693 mmHg 24%
    14:00 +35°C° 0 mm 1 mps 692 mmHg 24%
    15:00 +34°C° 0 mm 1 mps 692 mmHg 24%
    16:00 +34°C° 0 mm 1 mps 691 mmHg 23%
    17:00 +31°C° 0 mm 1 mps 691 mmHg 31%
    18:00 +27°C° 0 mm 1 mps 691 mmHg 39%
    19:00 +24°C° 0 mm 1 mps 690 mmHg 47%
    20:00 +23°C° 0 mm 1 mps 691 mmHg 52%
    21:00 +22°C° 0 mm 1 mps 691 mmHg 58%
    22:00 +21°C° 0 mm 1 mps 692 mmHg 64%
    23:00 +20°C° 0 mm 1 mps 692 mmHg 72%

    Tomorrow, 29 June, Thursday

    Time Temperature Precipitation Wind Pressure Humidity
    00:00 +19°C° 0 mm 1 mps 692 mmHg 80%
    01:00 +18°C° 0 mm 1 mps 692 mmHg 89%
    02:00 +18°C° 0 mm 1 mps 691 mmHg 91%
    03:00 +16°C° 0 mm 1 mps 691 mmHg 93%
    04:00 +16°C° 0 mm 1 mps 691 mmHg 95%
    05:00 +18°C° 0 mm 1 mps 691 mmHg 92%
    06:00 +18°C° 0 mm 1 mps 692 mmHg 90%
    07:00 +19°C° 0 mm 1 mps 692 mmHg 87%
    08:00 +23°C° 0 mm 1 mps 693 mmHg 70%
    09:00 +26°C° 0 mm 2 mps 694 mmHg 53%
    10:00 +30°C° 0 mm 2 mps 694 mmHg 35%
    11:00 +31°C° 0 mm 2 mps 694 mmHg 30%
    12:00 +34°C° 0 mm 2 mps 694 mmHg 25%
    13:00 +35°C° 0 mm 2 mps 693 mmHg 19%
    14:00 +35°C° 0 mm 2 mps 693 mmHg 19%
    15:00 +35°C° 0 mm 2 mps 692 mmHg 19%
    16:00 +35°C° 0 mm 2 mps 691 mmHg 19%
    17:00 +31°C° 0 mm 2 mps 691 mmHg 25%
    18:00 +28°C° 0 mm 2 mps 691 mmHg 30%
    19:00 +25°C° 0 mm 2 mps 691 mmHg 35%
    20:00 +23°C° 0 mm 2 mps 691 mmHg 41%
    21:00 +22°C° 0 mm 1 mps 692 mmHg 47%
    22:00 +20°C° 0 mm 1 mps 692 mmHg 53%
    23:00 +20°C° 0 mm 1 mps 692 mmHg 61%

    Day after tomorrow, 30 June, Friday

    Time Temperature Precipitation Wind Pressure Humidity
    00:00 +19°C° 0 mm 1 mps 692 mmHg 68%
    01:00 +18°C° 0 mm 1 mps 692 mmHg 76%
    02:00 +18°C° 0 mm 1 mps 691 mmHg 79%
    03:00 +18°C° 0 mm 1 mps 691 mmHg 83%
    04:00 +16°C° 0 mm 1 mps 691 mmHg 86%
    05:00 +18°C° 0 mm 1 mps 691 mmHg 84%
    06:00 +18°C° 0 mm 1 mps 692 mmHg 83%
    07:00 +19°C° 0 mm 1 mps 692 mmHg 81%
    08:00 +23°C° 0 mm 1 mps 693 mmHg 64%
    09:00 +27°C° 0 mm 1 mps 694 mmHg 48%
    10:00 +31°C° 0 mm 1 mps 695 mmHg 31%
    11:00 +33°C° 0 mm 1 mps 695 mmHg 27%
    12:00 +35°C° 0 mm 1 mps 694 mmHg 22%
    13:00 +36°C° 0 mm 1 mps 693 mmHg 17%
    14:00 +36°C° 0 mm 1 mps 693 mmHg 18%
    15:00 +35°C° 0 mm 1 mps 692 mmHg 18%
    16:00 +34°C° 0 mm 1 mps 691 mmHg 18%
    17:00 +30°C° 0 mm 1 mps 691 mmHg 26%
    18:00 +26°C° 0 mm 1 mps 691 mmHg 34%
    19:00 +22°C° 0 mm 1 mps 691 mmHg 42%
    20:00 +22°C° 0 mm 1 mps 691 mmHg 47%
    21:00 +21°C° 0 mm 1 mps 692 mmHg 52%
    22:00 +20°C° 0 mm 1 mps 692 mmHg 57%
    23:00 +20°C° 0 mm 1 mps 692 mmHg 65%

    1 July, Saturday

    Time Temperature Precipitation Wind Pressure Humidity
    00:00 +19°C° 0 mm 1 mps 692 mmHg 72%
    01:00 +18°C° 0 mm 1 mps 691 mmHg 79%
    02:00 +18°C° 0 mm 1 mps 691 mmHg 83%
    03:00 +18°C° 0 mm 1 mps 691 mmHg 86%
    04:00 +16°C° 0 mm 1 mps 691 mmHg 90%
    05:00 +18°C° 0 mm 1 mps 691 mmHg 87%
    06:00 +19°C° 0 mm 1 mps 692 mmHg 83%
    07:00 +19°C° 0 mm 1 mps 692 mmHg 80%
    08:00 +23°C° 0 mm 1 mps 693 mmHg 64%
    09:00 +27°C° 0 mm 2 mps 694 mmHg 47%
    10:00 +30°C° 0 mm 2 mps 695 mmHg 31%
    11:00 +32°C° 0 mm 2 mps 694 mmHg 27%
    12:00 +35°C° 0 mm 2 mps 693 mmHg 23%
    13:00 +36°C° 0 mm 1 mps 693 mmHg 19%
    14:00 +35°C° 0 mm 1 mps 692 mmHg 19%
    15:00 +35°C° 0 mm 1 mps 691 mmHg 19%
    16:00 +35°C° 0 mm 1 mps 691 mmHg 19%
    17:00 +31°C° 0 mm 1 mps 691 mmHg 27%
    18:00 +27°C° 0 mm 1 mps 691 mmHg 36%
    19:00 +23°C° 0 mm 1 mps 690 mmHg 44%
    20:00 +22°C° 0 mm 1 mps 691 mmHg 49%
    21:00 +21°C° 0 mm 1 mps 691 mmHg 55%
    22:00 +21°C° 0 mm 1 mps 692 mmHg 60%
    23:00 +20°C° 0 mm 1 mps 692 mmHg 68%

    2 July, Sunday

    Time Temperature Precipitation Wind Pressure Humidity
    00:00 +19°C° 0 mm 1 mps 691 mmHg 76%
    01:00 +18°C° 0 mm 1 mps 691 mmHg 83%
    02:00 +18°C° 0 mm 1 mps 691 mmHg 86%
    03:00 +18°C° 0 mm 1 mps 691 mmHg 89%
    04:00 +16°C° 0 mm 1 mps 690 mmHg 92%
    05:00 +18°C° 0 mm 1 mps 691 mmHg 89%
    06:00 +18°C° 0 mm 1 mps 692 mmHg 86%
    07:00 +19°C° 0 mm 1 mps 692 mmHg 83%
    08:00 +23°C° 0 mm 1 mps 693 mmHg 66%
    09:00 +27°C° 0 mm 2 mps 694 mmHg 50%
    10:00 +31°C° 0 mm 2 mps 694 mmHg 33%
    11:00 +32°C° 0 mm 2 mps 694 mmHg 29%
    12:00 +35°C° 0 mm 2 mps 693 mmHg 24%
    13:00 +36°C° 0 mm 2 mps 692 mmHg 20%
    14:00 +36°C° 0 mm 2 mps 692 mmHg 20%
    15:00 +35°C° 0 mm 1 mps 691 mmHg 20%
    16:00 +34°C° 0 mm 1 mps 691 mmHg 20%
    17:00 +31°C° 0 mm 1 mps 690 mmHg 29%
    18:00 +27°C° 0 mm 1 mps 690 mmHg 38%
    19:00 +23°C° 0 mm 1 mps 690 mmHg 47%
    20:00 +22°C° 0 mm 1 mps 691 mmHg 51%
    21:00 +22°C° 0 mm 1 mps 691 mmHg 55%
    22:00 +21°C° 0 mm 1 mps 692 mmHg 60%
    23:00 +20°C° 0 mm 1 mps 691 mmHg 69%

    3 July, Monday

    Time Temperature Precipitation Wind Pressure Humidity
    00:00 +19°C° 0 mm 1 mps 691 mmHg 77%
    01:00 +18°C° 0 mm 1 mps 691 mmHg 86%
    02:00 +18°C° 0 mm 1 mps 691 mmHg 89%
    03:00 +16°C° 0 mm 1 mps 691 mmHg 92%
    04:00 +16°C° 0 mm 1 mps 690 mmHg 95%
    05:00 +18°C° 0 mm 1 mps 691 mmHg 92%
    06:00 +18°C° 0 mm 1 mps 692 mmHg 89%
    07:00 +19°C° 0 mm 1 mps 692 mmHg 86%
    08:00 +23°C° 0 mm 1 mps 693 mmHg 69%
    09:00 +27°C° 0 mm 1 mps 694 mmHg 51%
    10:00 +31°C° 0 mm 1 mps 694 mmHg 34%
    11:00 +33°C° 0 mm 1 mps 694 mmHg 29%
    12:00 +35°C° 0 mm 1 mps 693 mmHg 24%
    13:00 +36°C° 0 mm 1 mps 693 mmHg 19%
    14:00 +36°C° 0 mm 1 mps 692 mmHg 19%
    15:00 +35°C° 0 mm 1 mps 691 mmHg 19%
    16:00 +34°C° 0 mm 1 mps 691 mmHg 19%
    17:00 +30°C° 0 mm 1 mps 691 mmHg 27%
    18:00 +27°C° 0 mm 1 mps 690 mmHg 35%
    19:00 +23°C° 0 mm 1 mps 690 mmHg 43%
    20:00 +22°C° 0 mm 1 mps 691 mmHg 48%
    21:00 +21°C° 0 mm 1 mps 691 mmHg 53%
    22:00 +21°C° 0 mm 1 mps 692 mmHg 58%
    23:00 +20°C° 0 mm 1 mps 691 mmHg 68%
    Show more